Welcome to the New NWS' Forecast!
Most changes are behind the scenes, but click here for differences you might notice.

Regional Weather Roundup (RWR)

Issued by Gray - Portland, ME (GYX)

                            
000
ASUS41 KGYX 190110
RWRGYX
WEATHER ROUNDUP FOR MAINE AND NEW HAMPSHIRE
NATIONAL WEATHER SERVICE GRAY ME
800 PM EST SUN NOV 18 2018

MEZ002-005-006-010-012-015-018-020-021-024-026-027-029-190200-
MAINE
  
CITY           SKY/WX    TMP DP  RH WIND       PRES   REMARKS
PORTLAND       CLOUDY    34  21  59 SW6       30.31F                  
SANFORD        MIX PCPN  31  24  75 SW3       30.31S                  
BAR HARBOR     FAIR      24  18  77 N5        30.32F                  
WISCASSET      MOCLDY    27  23  85 CALM      30.31F                  
ROCKLAND       FAIR      28  24  85 CALM      30.30F                  
FRYEBURG       FAIR      26  13  57 CALM      30.28S                  
LEWISTONAUBURN FAIR      28  19  69 S7        30.28F                  
AUGUSTA        MOCLDY    28  15  58 CALM      30.29F                  
WATERVILLE     MOCLDY    26  13  57 MISG      30.26F                  
BANGOR         FAIR      23  16  74 S3        30.31F                  
GREENVILLE       N/A     11   5  77 NE3       30.19F                  
MILLINOCKET    FAIR      10   6  84 CALM      30.30S                  
HOULTON        FAIR       2  -2  83 CALM      30.27S                  
PRESQUE ISLE   FAIR       0  -4  83 CALM      30.26F                  
FRENCHVILLE    FAIR      15   6  67 S6        30.19F                  
CARIBOU        FAIR      10   4  76 S3        30.24S                  
$$

NHZ002-005-008-009-011-012-014-190200-
NEW HAMPSHIRE
  
CITY           SKY/WX    TMP DP  RH WIND       PRES   REMARKS
PORTSMOUTH     CLOUDY    34  24  66 W5        30.29F                  
ROCHESTER      CLOUDY    32  25  75 CALM      30.29F                  
NASHUA         CLOUDY    34  26  72 CALM      30.30F                  
MANCHESTER     CLOUDY    33  28  81 SE3       30.28F                  
CONCORD        CLOUDY    31  25  78 S5        30.29S                  
LACONIA        CLOUDY    31  23  72 S5        30.27F                  
PLYMOUTH       MOCLDY    26  20  79 CALM      30.27F                  
BERLIN         FAIR      13  10  88 CALM      30.23F                  
WHITEFIELD     CLOUDY    20  17  88 CALM      30.23F                  
JAFFREY        CLOUDY    31  23  72 SW6       30.25F                  
KEENE          CLOUDY    31  26  82 CALM      30.28F                  
LEBANON        CLOUDY    29  21  72 CALM      30.26S                  
MT WASHINGTON  FOG        7   7 100 W37         N/A  VSB 1/8 WCI -19  
$$

VTZ005-007-008-190200-
VERMONT
  
CITY           SKY/WX    TMP DP  RH WIND       PRES   REMARKS
ST JOHNSBURY     N/A     25  18  74 MISG      30.24S                  
MONTPELIER     CLOUDY    25  20  81 CALM      30.25F                  
BURLINGTON     CLOUDY    31  17  56 S6        30.24F                  
$$

MAZ007-012-024-CTZ003-RIZ002-NYZ038-NYZ072-190200-
SOUTHERN NEW ENGLAND AND NY
  
CITY           SKY/WX    TMP DP  RH WIND       PRES   REMARKS
BOSTON         CLOUDY    40  29  64 SW6       30.31S                  
WORCESTER      CLOUDY    32  22  66 CALM      30.26F                  
NANTUCKET      CLOUDY    38  33  82 CALM      30.32F                  
PROVIDENCE     CLOUDY    39  24  55 CALM      30.31F                  
HARTFORD       CLOUDY    36  24  62 SE5       30.29F                  
ALBANY         LGT SNOW  31  27  85 CALM      30.27F                  
NEW YORK CITY  CLOUDY    44  30  57 NE6       30.27F                  
$$

ANZ081-ANZ082-ANZ150-NHZ014-MEZ023>029-190200-
COASTAL MARINE OBSERVATIONS
  
STATION/POSITION TIME  TEMP    WIND        PRES    WAVE
                       AIR SEA DIR/SP/G            HT/PER
                 (UTC) (F)     (DEG/KT/KT) (MB)    (FT/S)
MOUNT DESERT ROC 0000   36     210/  8/  9 1026.8F
MATINICUS ROCK   0000   37     220/ 10/ 11 1026.2F
ISLE OF SHOALS   0000   37     210/  7/  8 1026.1F
CASHES LEDGE BUO 0050   40 49              1026.0R   2/10
$$

.............KEY..............
   WCI - WIND CHILL
   TC  - TEMPERATURE IN CELSIUS
   VSB - VISIBILITY IN MILES
   HX  - HEAT INDEX
   FAIR- INDICATES FEW OR NO CLOUDS BELOW 12,000 FT, WITH NO 
         SIGNIFICANT WEATHER AND/OR OBSTRUCTIONS TO VISIBILITY.